Погода Большие Уки

Погода Большие Уки : погода сейчас, прогноз погоды и архив. Всё, что Вы хотите узнать о погоде Большие Уки!

Хотите узнать прогноз погоды Большие Уки? Тогда Вам сюда: Погода Большие Уки

Поиск расширенной информации на нашем сайте:

Другие новости

Новости СМИ2

Главная страница сайта

Новости сайта

03.07.2017

Напоминаем, что на нашем специализированном сайте Метеоцентр.Азия вы можете получить высокодетализированные автоматические прогнозы погоды по пунктам России, СНГ и мира в авиационном формате (включающие направление и скорость ветра, видимость, явления погоды, количество и форму облачности, нижнюю и верхнюю границу облачности).

Рекомендуем: форум отзывов о скидках купонаторов Москвы

Погода Большие Уки - сегодня

Время (UTC), дата Ветер
(°,м/с) 
Видим.   Явления Облачность Т
(°С)
Тd
(°С)
f(%) Тe
(°С)
Pmin
(гПа)
dP
(гПа)
Po
(мм)
O2
(г/м3)
Тmin Tmax R s Состояние
почвы
00 20.04.18 200 (Ю) 10 км    4/4 600 м 
[Sc]
+2 -2.7 71 1006.8  -2.2  747  299           
03 20.04.18 190 (Ю) 4{11}  20000 м    9/9 600 м 
[Sc]
+3.4 -1.9 68 +1  1005.2  -1.6  746  297  +1.4        мокрая 
06 20.04.18 180 (Ю) 8000 м  слаб. ливневой дождь  10/10 600 м кучево-дожд. 
[Cb cap]
+2.5 +0.5 87 +1  1004.4  -0.8  745  297           
09 20.04.18 200 (Ю) 20000 м  {ливн. осадки}  10/10 600 м 
[Sc]
+3.4 +2.8 96 +1  1003.6  -0.8  745  296           
12 20.04.18 190 (Ю) 20000 м  {ливн. осадки}  10/10 600 м кучево-дожд. 
[Cb cap]
+5 +5 100 +4  1002  -1.5  744  293           
15 20.04.18 190 (Ю) 4000 м  слаб. ливневой дождь  10/10 600 м кучево-дожд. 
[Cb cap]
+7.2 +6.6 96 +6  1000.6  -1.2  743  290    +7.3     
18 20.04.18 200 (Ю) 4000 м  слаб. ливневой дождь  10/10 600 м кучево-дожд. 
[Cb cap]
+6.9 +6.1 95 +6  999.8  -0.8  742  291           
21 20.04.18 190 (Ю) 4000 м  слаб. снег{ливн. осадки}  10/10 300 м 
[Ns]
+6.6 +6 96 +5  998.9  -0.9  741  291           
00 21.04.18 180 (Ю) 10 км  в посл. час дождь{ливн. осадки, снег}  10/10 600 м 
[Sc]
+6.1 +5.8 98 +6  997.9  -1  741  291           
03 21.04.18 210 (ЮЗ) 5{12}  9000 м  слаб. дождь  10/10 300 м 
[Ns]
+7.7 +6.2 90 +6  997.1  -0.7  740  289  +5.8      мокрая 
09 21.04.18 360 (С) 9000 м  слаб. снег{ливн. осадки}  10/10 300 м 
[Ns]
+1.2 +1.1 99 +1  1001.2  1.5  743  298           
12 21.04.18 010 (С) 8000 м  слаб. снег{ливн. осадки}  10/10 300 м 
[Ns]
+0.2 +0.2 100 -2  1001.1  0.1  743  299           
15 21.04.18 360 (С) 4000 м  слаб. снег{ливн. осадки}  10/10 300 м 
[Ns]
-0.2 -0.2 100 -2  1001.7  0.6  743  300    +7.8  10     
18 21.04.18 010 (С) 10 км  {ливн. осадки, снег}  10/10 600 м 
[Sc]
-1.1 -1.1 100 -3  1002.1  0.3  743  301           
21 21.04.18 010 (С) 10 км    10/10 600 м 
[Sc]
-1.8 -1.8 100 -4  1002  -0.1  743  302           
00 22.04.18 360 (С) 10 км    10/10 600 м 
[Sc]
-2.8 -2.8 100 -6  1003.4  1.3  744  303           
03 22.04.18 010 (С) 20000 м    8/8 600 м средняя, верхняя 
[Sc|Ac trans|Ci]
-1.9 -2.9 93 -5  1006.3  747  303  -2.9    0.5  равномерный
мокрый или
старый снег
100% 
06 22.04.18 020 (С) 20000 м    8/3 600 м верхняя 
[Sc diur, vesp|Ci]
+0.3 -4.8 69 -1  1009.1  2.8  749  302           
09 22.04.18 040 (СВ) 20000 м    5/1 600 м верхняя 
[Cu hum|Ci fib]
+2.7 -5.6 54 +2  1010.4  1.4  750  300           
12 22.04.18 110 (В) 20000 м    9/0 верхняя 
[Cc]
+3.8 -5.5 51 +3  1011.3  750  299           
15 22.04.18 070 (В) 10 км    6/0 верхняя 
[Ci fib]
+1.8 -5.4 59 +1  1012.3  0.8  751  301    +4       
18 22.04.18 100 (В) 10 км    ясно 
-0.6 -6 67 -1  1012.4  0.1  751  304           
21 22.04.18 100 (В) 10 км    ясно 
-1.7 -3.9 85 -4  1012.6  0.1  751  305           
00 23.04.18 080 (В) 19000 м    ясно 
-2.9 -4.6 88 -4  1012.4  -0.3  751  306           
03 23.04.18 110 (В) 20000 м    1/1 600 м 
[Cu hum]
-0 -3 80 -1  1011.4  -0.8  750  303  -2.9        мокрая 
Время (UTC), дата Ветер
(°,м/с) 
Видим.   Явления Облачность Т
(°С)
Тd
(°С)
f(%) Тe
(°С)
Pmin
(гПа)
dP
(гПа)
Po
(мм)
O2
(г/м3)
Тmin Tmax R s Состояние
почвы

Для получения пояснительной информации подведите курсор к названию столбца.

ПОГОДА Большие Уки - архив

Всё, что Вы хотите узнать о погоде Большие Уки - удобно и подробно!

Выберите нужную дату (начиная с 1 января 2015* года) и нажмите кнопку "Найти".
Будут отображены архивные сводки погоды по пункту Большие Уки, начиная с указанной даты.


Отображать данные в формате CSV (для использования в таблицах Excel)


Внимание! Наш архив погоды предназначен исключительно для личного некоммерческого использования в познавательных целях. Если Вам необходимы официальные справки о состоянии погоды (для производственных, юридических, коммерческих и т.п. целей), обращайтесь в органы Росгидромета.

*Примечание: данная дата относится к архиву по метеостанциям СССР (Россия, СНГ, Балтия).
Архив по метеостанциям Зарубежной Европы и Азии (кроме Китая) хранится 10 дней, по другим регионам земного шара (Китай, Африка, Америка, Австралия, Океания) - 1 день.

Большие Уки - район местоположения метеостанции


Название, широта, долгота, высота метеостанции:
Большие Уки 56.9°ш. 72.7°д. 87 м над ур. моря [Российская Федерация]

Дополнительная информация

В oтличие oт бoльшинства пoгoдных сайтoв мы публикуем пoдрoбную метеoинфoрмацию в детальнoм прoфессиoнальнoм фoрмате.

Характеристики температуры и влажнoсти вoздуха измеряются на высoте 2 м в тени вдали oт зданий и деревьев.
Скoрoсть ветра измеряется на высoте 10 м (на урoвне рoста челoвека скoрoсть ветра ниже в 1.5-2 раза). Если метеoстанция нахoдится в гoрoде или в лесу, тo скoрoсть ветра занижена на 2-4 м/с пo сравнению с oткрытым местoм. Скoрoсть ветра над акватoриями крупных рек и oзёр, а также на вершинах хoлмoв на 2-5 м/с выше, чем в oбычных услoвиях.
Атмoсфернoе давление в разных тoчках местнoсти мoжет значительнo oтличаться oт давления на метеoстанции, в зависимoсти oт услoвий рельефа (при пoдъёме на 10 м давление пoнижается примернo на 1 мм рт.ст.).